Wind_Speed
23 25 28 28 30 31 33 36 38 39 40 42 44 43 43 44 45 46 47 48 47 46 45 44 44 43 43 42 41 40 40 39 38 38 37 36 35 34 33 31 31 30 30 30 29 28 27 26 26 26 25 24 24 23 22 21 18 15 15 15 14 12 11
23 25 27 28 30 32 33 35 37 39 41 43 45 44 44 44 46 47 47 48 48 47 47 46 45 44 44 43 42 42 41 40 39 38 38 37 36 34 33 33 32 31 30 30 30 29 29 28 27 26 26 25 24 23 22 21 20 18 17 16 15 14 13
24 25 27 29 31 33 34 34 36 39 41 43 45 46 45 45 46 47 47 47 48 47 47 47 46 45 44 44 43 42 41 40 39 39 38 37 36 35 34 33 32 31 30 30 31 31 30 30 28 27 26 25 24 24 22 21 20 19 19 18 17 16 16
24 25 27 30 32 32 32 34 36 38 40 43 46 47 47 46 45 45 46 46 46 47 48 48 47 46 45 45 44 42 41 40 39 38 38 37 36 35 34 34 33 32 31 31 31 31 31 31 30 28 27 26 25 24 23 21 20 20 20 20 19 18 17
23 24 25 28 30 30 31 34 36 38 40 44 47 48 47 46 45 45 45 45 46 46 47 47 47 47 46 46 45 44 43 41 40 39 38 37 36 35 35 34 34 33 32 32 32 32 32 32 32 31 29 28 26 25 25 23 22 21 22 22 21 20 19
23 24 25 27 28 29 32 35 37 38 40 42 45 49 48 47 46 46 45 45 45 45 45 45 46 47 47 47 46 45 44 42 41 40 39 38 37 37 36 35 34 33 32 32 33 33 33 33 33 32 31 29 28 27 27 26 24 23 23 23 22 22 21
22 24 26 28 28 30 32 34 36 37 38 37 38 41 44 44 46 46 45 45 45 45 45 45 46 47 48 47 47 46 45 44 43 41 40 39 39 38 37 36 35 34 32 32 33 33 34 34 34 33 32 31 30 29 29 28 27 25 25 25 24 23 22
21 24 27 29 29 29 30 32 33 33 33 34 34 36 39 40 41 44 46 46 45 45 46 46 46 47 47 47 48 47 46 45 44 42 41 41 41 40 39 38 36 34 33 33 33 34 34 34 34 34 33 32 31 30 30 30 29 27 27 27 25 24 24
17 19 22 23 24 24 24 26 27 28 30 32 34 35 36 37 39 42 46 47 46 47 47 46 46 46 46 47 47 47 47 46 45 44 43 42 42 41 40 39 37 36 35 35 34 34 35 35 35 34 34 34 33 32 31 31 30 29 29 29 27 26 25
9 11 13 14 16 17 18 19 22 27 31 34 36 37 36 37 38 40 41 43 45 47 48 47 47 47 46 46 46 46 47 47 46 45 44 44 44 43 42 41 39 38 37 36 36 36 36 35 35 36 36 35 35 34 33 32 32 31 31 31 29 28 27
6 8 11 13 14 16 18 20 23 28 32 35 38 39 38 38 39 39 41 42 44 47 48 47 48 48 47 45 45 46 46 46 47 46 46 46 45 44 43 42 42 41 39 38 38 38 38 36 36 37 38 38 37 36 35 34 34 33 32 32 31 30 29
5 7 11 13 15 17 20 22 25 28 32 36 38 39 40 41 40 39 42 45 45 45 46 47 48 49 48 46 45 46 46 45 45 45 45 45 45 45 44 43 44 44 42 40 39 39 40 39 38 38 39 39 39 38 37 37 36 35 34 33 33 33 32
5 6 9 11 13 15 18 21 24 27 31 35 37 38 40 42 40 38 40 44 44 42 42 44 45 47 49 49 48 47 46 45 44 43 43 43 44 44 44 43 44 44 43 41 40 40 40 41 40 39 39 39 40 39 39 39 38 38 37 36 35 35 34
5 6 8 8 9 12 14 17 21 26 29 32 34 36 37 39 39 38 39 41 42 40 39 41 44 46 48 49 50 50 48 46 44 43 43 43 42 42 43 43 43 43 43 42 41 40 40 41 41 40 40 39 39 40 40 40 40 40 40 38 38 38 37
5 7 7 5 6 8 9 13 17 22 27 30 32 34 36 37 38 40 41 41 40 40 40 41 45 46 47 49 50 50 49 47 46 46 45 45 44 44 43 43 43 43 43 43 42 41 40 40 41 41 41 39 39 39 40 41 42 43 42 41 40 40 39
6 5 5 5 6 7 9 11 14 18 23 27 30 34 37 38 40 43 44 42 41 40 40 42 45 47 48 49 50 50 48 46 46 47 47 47 47 46 44 44 44 44 45 44 44 43 42 41 41 43 43 41 40 39 40 42 44 44 44 43 42 41 41
9 8 6 5 6 9 12 14 15 17 19 23 28 32 36 39 41 42 41 39 41 42 41 41 45 48 49 49 50 49 47 45 46 47 48 48 48 48 47 46 46 47 47 46 45 44 43 43 43 43 44 44 42 41 41 42 44 44 45 44 43 42 41
14 11 7 6 9 14 18 18 17 17 18 19 23 28 33 37 40 41 41 39 40 40 40 41 45 48 48 48 48 47 44 44 45 46 46 47 48 48 47 46 47 48 48 48 47 45 44 44 44 44 45 46 45 44 44 44 43 44 44 43 43 42 42
20 17 11 10 16 23 24 22 19 18 18 17 19 24 29 33 37 40 42 40 37 34 36 40 45 47 48 48 47 44 42 42 44 45 45 46 46 46 46 46 47 48 49 48 47 46 46 46 45 45 45 47 48 47 46 45 45 44 44 43 42 41 41
24 23 19 18 22 26 27 24 20 18 18 17 16 19 24 29 33 35 38 39 36 34 36 40 43 45 47 48 46 43 41 42 43 43 43 44 45 45 45 46 46 47 48 48 48 48 48 48 47 46 46 47 48 48 47 47 47 46 44 43 42 41 39
25 24 24 25 26 27 28 25 21 18 18 16 15 16 21 26 30 32 35 38 39 40 41 42 42 44 46 46 44 42 42 42 42 42 42 43 44 45 45 45 45 46 47 48 49 49 48 48 47 47 47 47 48 48 48 48 48 47 45 44 42 41 39
20 19 21 25 28 29 28 25 21 20 21 18 15 15 20 24 26 29 32 35 38 41 41 42 43 44 44 44 42 41 41 41 41 42 42 43 44 44 44 44 45 45 46 47 48 48 48 48 48 47 47 47 47 48 49 48 48 47 46 45 43 41 41
18 21 25 28 29 28 26 23 21 21 21 19 16 15 17 20 23 27 30 32 36 38 40 41 42 42 41 41 40 40 41 41 42 42 42 43 44 44 43 43 44 45 45 46 47 48 49 48 48 48 47 47 48 48 49 49 49 48 47 45 44 43 43
24 26 28 29 26 24 23 22 21 21 19 17 16 14 16 19 22 25 29 32 33 35 38 40 40 40 40 39 39 40 41 41 42 42 43 43 43 43 42 42 44 44 44 45 46 47 47 47 47 47 47 48 48 48 48 47 48 49 49 47 45 44 44
23 24 25 25 23 20 20 20 19 18 16 16 15 14 16 19 20 23 27 30 31 33 36 38 38 38 39 39 39 38 38 38 39 40 41 42 42 42 42 43 44 44 44 45 45 45 46 45 45 45 46 45 43 43 45 44 43 46 49 49 48 47 45
20 21 20 19 18 17 17 17 16 14 14 16 17 15 16 17 19 21 24 27 30 32 34 36 36 35 36 36 36 35 35 36 37 37 38 40 41 41 42 42 43 42 43 43 43 43 43 43 43 44 44 43 40 40 43 40 35 39 47 49 48 49 46
19 18 16 15 15 14 14 14 14 13 14 16 17 16 16 16 17 20 22 24 28 30 31 32 32 32 32 32 33 33 34 35 35 35 35 36 36 38 40 41 42 42 42 41 41 41 41 42 43 42 43 45 44 43 46 42 35 37 44 47 46 48 48
13 11 11 12 12 12 12 12 12 12 12 13 14 15 16 16 17 18 19 21 23 25 26 28 29 29 29 29 30 31 33 33 34 34 34 33 33 35 38 40 41 40 40 40 39 38 35 34 36 36 39 42 40 39 44 44 38 38 45 47 45 47 49
7 5 4 4 5 7 9 10 10 11 11 11 12 14 15 16 15 15 17 19 20 21 22 24 25 26 25 26 27 28 30 32 32 33 33 32 33 35 37 38 39 39 39 40 38 33 27 24 25 28 32 35 35 35 37 37 35 37 43 48 48 47 49
6 6 5 4 3 4 5 7 9 11 11 12 13 14 15 16 16 17 18 20 20 20 19 19 20 20 20 21 22 24 25 27 28 28 29 29 30 32 33 35 36 36 35 34 34 31 27 25 24 26 28 31 32 35 34 33 34 36 39 45 49 49 50
7 7 7 6 5 5 6 7 9 10 13 15 15 16 16 16 16 17 17 17 16 16 16 15 15 14 15 16 17 18 19 20 22 22 23 23 25 27 28 30 31 29 25 23 24 25 26 27 26 27 28 29 30 31 32 32 35 37 39 44 47 48 50
8 8 8 8 7 6 7 9 11 12 13 14 15 16 17 15 14 14 14 13 13 13 14 14 14 14 14 15 15 15 16 16 16 17 18 19 20 20 19 20 21 21 19 18 20 22 22 24 26 27 29 31 31 31 31 32 34 37 42 45 45 45 48
10 9 9 8 7 6 7 9 11 13 15 16 14 14 15 15 14 13 12 11 9 8 9 9 10 11 11 12 12 12 13 14 13 13 14 16 17 16 15 15 16 17 17 19 21 22 22 23 24 25 28 30 31 31 32 33 33 35 42 47 47 47 48
10 9 8 7 7 6 7 9 11 14 16 18 17 16 16 15 15 14 13 12 11 11 10 9 9 9 9 9 9 8 8 10 11 11 10 10 11 12 13 13 14 15 16 17 18 21 22 23 23 24 26 28 30 31 32 34 34 36 42 47 48 48 49
9 9 8 8 7 7 7 9 11 12 15 17 17 17 16 16 15 14 13 13 12 11 10 10 11 11 10 9 9 8 8 7 7 8 8 8 10 12 14 15 16 17 19 18 19 21 23 25 27 27 27 29 31 32 34 36 38 39 42 47 49 50 51
10 9 9 9 9 9 9 10 11 12 13 14 14 15 15 14 13 13 12 11 10 10 11 12 12 11 10 10 8 8 8 7 7 7 6 7 8 7 8 10 11 13 15 15 17 19 21 23 26 27 28 32 33 34 37 41 44 44 43 46 50 54 55
11 11 11 11 12 12 12 12 13 14 13 13 13 13 13 13 12 12 12 10 9 10 12 15 15 14 12 12 11 10 9 9 9 10 10 10 9 8 7 7 5 3 3 4 6 8 9 11 13 15 20 26 30 32 35 41 47 51 52 52 52 53 55
15 15 15 14 14 15 15 15 15 16 16 15 15 14 14 14 13 12 12 12 11 11 14 17 19 19 18 18 18 18 17 17 17 16 15 14 12 10 9 8 7 6 4 4 4 5 5 5 7 8 11 14 18 22 25 29 33 39 46 52 56 58 60
Wind_Direction
204 204 204 203 201 201 199 198 198 199 200 205 211 213 214 216 217 219 222 224 223 222 221 221 222 223 224 224 225 226 226 225 226 227 228 229 230 231 231 231 229 228 228 229 231 231 231 232 233 237 239 240 241 242 243 244 241 234 231 231 233 236 232
203 204 204 203 203 203 201 200 200 201 204 208 213 214 214 216 218 220 222 224 223 222 221 221 222 223 224 225 225 226 226 226 226 228 229 230 230 231 232 232 232 230 228 229 231 232 233 233 233 236 239 241 242 242 242 243 242 239 236 235 235 237 237
203 204 203 203 204 204 202 199 201 204 206 209 212 215 216 218 220 221 221 223 224 223 222 222 222 222 224 225 225 224 225 225 226 227 228 228 230 230 232 233 233 232 231 229 230 232 233 234 233 233 236 239 240 241 240 238 239 239 238 237 237 238 240
205 205 204 204 205 204 201 200 201 203 206 211 216 218 219 220 222 222 222 223 223 222 222 222 222 222 222 224 224 223 224 224 225 226 227 228 229 230 231 233 233 232 232 230 229 230 233 234 234 232 233 235 236 238 239 237 237 240 239 237 237 238 239
208 207 205 205 205 204 201 201 203 205 207 212 217 221 221 221 222 222 223 223 224 224 222 221 222 221 221 223 223 223 224 225 225 226 228 229 230 231 231 231 232 232 231 230 229 229 230 232 233 232 231 233 234 236 239 239 238 239 240 239 238 238 237
208 205 205 206 206 205 203 204 207 209 209 209 213 219 220 220 221 222 224 224 224 225 224 222 222 222 222 222 223 225 225 226 226 227 228 229 230 230 230 230 231 232 231 231 230 229 229 230 231 231 231 232 233 235 237 239 238 238 240 241 240 238 236
209 200 203 206 206 206 205 206 208 210 210 206 206 212 215 215 218 220 222 224 225 225 224 223 222 223 224 224 224 226 226 227 227 227 228 230 230 231 230 230 231 231 231 231 231 230 230 230 230 230 231 231 233 234 236 238 238 237 238 239 239 238 237
212 201 204 208 208 208 206 207 207 206 207 204 201 204 207 208 211 215 219 223 225 224 224 224 223 224 225 225 226 226 227 227 227 227 228 229 231 231 231 231 231 231 232 232 232 230 230 230 230 230 230 231 232 233 234 236 237 237 238 238 237 237 237
216 204 207 210 211 211 209 209 207 204 204 203 201 201 203 203 204 210 216 220 223 224 224 224 224 224 225 226 226 227 227 228 227 227 227 229 231 231 232 233 232 232 232 232 233 233 231 231 231 231 231 231 232 232 233 235 236 237 238 238 237 236 237
205 192 200 208 210 212 212 209 205 204 203 203 202 201 200 200 202 207 210 212 217 222 225 225 225 225 226 226 226 227 228 228 228 228 227 228 230 231 232 234 235 234 233 233 234 235 234 232 232 233 232 232 232 233 234 235 236 236 238 239 238 237 237
175 194 212 215 212 210 209 207 207 208 206 205 205 204 202 201 201 204 206 208 213 219 223 224 225 226 228 227 226 227 227 227 228 228 228 228 229 231 232 234 236 237 236 235 235 236 237 235 233 234 235 234 234 234 235 236 236 237 237 239 240 239 238
176 225 240 228 214 210 212 212 212 213 211 210 209 207 207 206 203 202 209 213 214 215 217 220 221 224 228 229 228 228 228 228 228 228 228 229 230 231 232 233 236 238 238 237 235 236 238 238 236 236 236 235 235 235 236 237 238 238 238 239 241 241 240
213 237 240 225 210 213 219 221 220 219 218 217 214 210 211 212 207 203 207 213 214 211 212 215 217 221 226 229 229 229 229 229 228 228 228 228 229 230 231 232 234 236 238 238 237 236 237 238 238 238 237 237 237 237 237 238 239 240 240 239 241 242 242
225 219 217 215 214 220 227 233 231 226 224 222 217 212 213 214 213 209 208 211 210 208 208 211 215 219 223 227 229 230 230 229 229 229 229 229 230 230 231 232 233 234 236 237 237 236 236 237 239 239 239 238 238 238 239 239 241 241 241 240 240 242 242
202 189 184 196 223 232 239 251 246 236 231 228 220 215 214 213 212 213 214 213 210 207 207 211 217 221 223 227 230 232 232 231 230 230 230 231 231 231 231 232 233 234 235 236 236 237 236 236 238 240 241 239 238 239 239 240 241 241 241 241 240 241 242
213 202 201 215 244 265 277 278 265 249 240 233 226 220 217 216 215 217 218 216 213 210 207 211 218 223 225 228 231 233 234 233 232 232 232 232 233 233 232 233 234 235 236 237 237 237 237 237 238 240 242 242 240 238 239 240 241 241 241 242 241 242 242
251 256 257 236 244 276 294 296 282 263 249 241 234 227 223 222 222 220 216 214 215 215 210 210 218 224 227 229 232 234 235 236 235 234 234 234 234 234 234 234 236 237 238 239 239 239 239 239 239 240 242 243 242 240 240 240 242 242 243 242 242 243 243
258 264 269 257 273 290 296 298 292 276 261 250 240 233 229 227 225 223 218 213 213 215 212 211 219 226 229 229 231 235 237 237 236 236 236 236 236 236 236 237 238 239 239 240 241 241 242 241 241 241 242 244 244 243 242 242 242 243 244 244 243 243 244
260 269 278 279 290 295 294 293 290 278 267 259 247 240 235 230 227 227 225 217 210 208 208 213 221 227 229 229 231 235 237 236 237 237 238 238 238 238 238 238 239 240 241 242 243 243 243 243 242 242 242 243 244 245 244 244 244 243 244 245 244 243 243
268 277 282 283 287 289 287 286 283 273 268 262 251 241 235 234 233 232 230 222 213 209 211 216 221 226 229 232 233 236 237 237 237 238 238 240 240 240 240 240 240 241 242 242 243 244 244 244 244 244 243 243 244 245 245 246 246 245 244 245 245 245 244
270 275 278 279 280 279 277 278 277 273 270 265 252 234 227 231 232 229 228 225 219 217 219 221 223 226 231 234 236 237 237 237 238 238 238 239 240 240 241 241 242 242 242 242 243 245 246 246 246 246 246 245 246 246 246 246 246 247 246 246 246 246 245
264 266 269 271 271 270 270 270 270 271 272 270 260 236 220 222 224 221 222 223 221 221 223 223 225 228 232 236 238 237 237 237 238 238 238 238 239 240 241 242 243 243 242 242 243 245 247 248 248 248 248 248 248 248 248 247 247 248 248 247 247 247 247
257 261 263 265 265 264 264 265 266 270 274 272 262 237 215 213 214 213 215 219 220 222 223 224 227 230 232 235 236 236 237 237 237 238 237 237 238 240 241 242 243 244 244 243 243 243 246 248 249 249 250 250 250 250 251 250 250 250 250 249 248 247 247
252 256 258 258 259 258 259 262 264 268 270 264 252 232 209 206 208 210 213 216 216 218 221 225 228 230 232 233 234 235 236 237 238 238 238 239 240 242 243 244 245 245 245 245 245 245 246 247 249 251 252 253 252 252 252 253 253 253 252 251 250 248 248
243 247 250 252 253 254 258 261 263 263 259 249 238 222 206 203 203 206 212 216 215 216 223 228 229 230 233 234 235 237 238 240 241 241 242 243 244 245 245 246 246 247 247 249 249 249 248 246 246 249 252 253 252 251 252 253 253 253 254 253 251 249 248
232 238 245 250 251 251 253 254 252 246 237 230 223 210 199 199 201 203 211 219 219 218 224 229 231 233 235 235 236 238 240 241 242 242 244 245 246 247 248 248 249 249 250 251 250 249 248 246 246 247 250 251 251 252 254 253 248 248 252 252 250 249 248
231 236 241 244 244 242 240 240 235 226 223 224 218 204 191 190 196 200 208 218 221 221 224 230 233 235 237 237 237 238 239 240 243 244 246 246 248 251 251 250 251 250 250 250 250 250 250 249 249 248 249 253 254 254 256 254 246 245 251 251 248 248 246
228 232 236 238 234 224 218 218 218 215 217 218 213 202 192 188 191 198 208 218 223 222 223 228 233 236 238 239 239 239 240 242 244 246 247 247 249 250 250 250 251 251 251 250 250 250 250 250 251 249 249 253 253 252 256 256 248 245 250 251 248 245 244
195 187 195 215 217 204 196 194 196 196 196 194 194 194 189 184 184 190 200 208 211 210 213 221 229 234 236 237 237 237 238 240 243 246 247 248 249 249 249 251 251 252 252 251 250 250 248 246 247 249 251 252 249 248 253 254 247 246 250 251 247 244 245
160 148 136 130 137 150 153 160 170 173 170 167 171 176 176 176 179 184 192 200 204 208 214 222 229 234 237 237 236 235 235 238 242 247 249 250 250 250 249 250 251 253 254 253 251 249 247 245 246 249 252 251 248 248 249 246 245 248 250 249 248 246 247
151 147 140 132 127 125 124 124 128 139 148 152 158 165 169 175 183 189 193 198 203 209 214 217 221 226 231 236 238 237 237 237 240 243 246 248 248 249 249 249 250 250 248 247 247 246 246 247 248 248 250 251 250 251 249 246 246 248 248 249 249 249 247
154 151 146 139 131 123 121 115 109 116 128 136 146 157 162 167 177 184 186 189 194 202 207 209 210 211 215 221 225 226 226 226 228 231 234 235 237 240 243 244 244 243 240 240 244 245 245 247 248 248 251 253 254 255 254 252 249 249 250 251 250 248 249
157 157 153 148 137 127 124 117 110 113 119 122 129 142 150 156 162 166 167 165 162 166 174 185 196 200 201 203 207 209 210 208 209 215 222 228 229 231 233 235 237 239 239 239 242 245 247 249 250 251 252 254 256 257 257 256 252 250 252 253 252 251 250
155 157 155 147 137 132 127 116 109 115 121 122 122 126 133 139 141 142 142 138 130 127 127 133 145 157 162 165 168 172 183 192 197 199 203 215 222 223 227 233 237 241 242 242 243 247 250 252 253 254 257 258 259 259 259 258 256 254 254 255 257 255 252
145 148 147 139 133 132 125 115 109 111 115 119 122 126 128 130 131 131 131 128 126 125 122 124 131 138 140 142 144 144 144 153 169 177 183 197 207 212 217 219 223 230 235 239 242 245 249 254 257 259 262 263 263 262 261 260 260 260 259 260 263 263 259
138 137 134 128 125 122 117 113 109 106 105 109 115 120 122 122 125 128 126 123 122 124 129 135 138 139 140 141 142 143 142 145 154 159 167 183 192 201 209 210 214 225 233 240 245 248 252 259 262 265 268 268 266 266 264 263 264 264 262 262 265 266 265
129 126 122 118 117 117 115 111 107 103 100 99 100 104 106 106 109 112 113 111 111 117 131 140 141 138 138 137 134 132 131 129 129 128 129 133 134 131 127 119 113 136 195 239 260 265 268 271 274 277 275 271 272 273 270 268 267 266 263 262 263 265 265
121 118 116 114 114 115 112 109 105 102 100 99 97 96 96 95 94 95 97 98 100 106 118 127 127 122 118 116 115 115 115 115 116 118 119 119 117 116 112 98 82 68 52 24 352 338 332 319 315 314 304 295 296 296 293 288 284 279 273 267 263 261 261
Height
1444 1447 1449 1452 1455 1457 1459 1460 1463 1467 1470 1473 1476 1479 1483 1487 1490 1493 1496 1499 1502 1506 1509 1512 1515 1518 1520 1523 1525 1528 1531 1533 1535 1537 1539 1541 1543 1545 1547 1549 1551 1553 1555 1556 1558 1559 1560 1561 1563 1564 1565 1566 1568 1569 1570 1572 1573 1574 1575 1576 1577 1577 1577
1440 1442 1445 1448 1450 1452 1454 1457 1459 1462 1465 1467 1471 1475 1478 1481 1484 1487 1490 1494 1498 1502 1505 1508 1511 1514 1516 1519 1522 1524 1527 1529 1532 1534 1536 1538 1540 1542 1544 1546 1548 1550 1552 1554 1555 1556 1558 1559 1560 1562 1563 1564 1565 1567 1568 1569 1571 1572 1573 1574 1575 1575 1575
1435 1437 1439 1443 1444 1446 1450 1453 1455 1457 1460 1463 1465 1469 1472 1475 1478 1481 1485 1489 1493 1498 1501 1504 1507 1510 1513 1516 1518 1521 1523 1526 1528 1530 1532 1534 1537 1539 1541 1543 1545 1547 1549 1550 1552 1553 1555 1556 1557 1559 1560 1562 1563 1564 1565 1567 1568 1569 1570 1571 1573 1573 1574
1430 1432 1435 1437 1439 1442 1445 1448 1451 1452 1455 1458 1460 1463 1466 1470 1474 1477 1481 1484 1488 1492 1495 1499 1502 1505 1509 1511 1514 1517 1519 1522 1525 1527 1529 1531 1534 1536 1538 1540 1541 1543 1545 1547 1549 1550 1551 1553 1554 1556 1557 1559 1560 1562 1563 1564 1565 1566 1568 1569 1570 1571 1572
1426 1428 1431 1434 1436 1439 1441 1443 1446 1447 1450 1453 1455 1458 1462 1466 1470 1473 1477 1480 1484 1487 1490 1495 1498 1502 1505 1507 1510 1513 1515 1518 1521 1524 1526 1528 1531 1533 1534 1536 1537 1539 1541 1543 1545 1547 1548 1549 1551 1553 1554 1556 1557 1559 1560 1561 1563 1564 1565 1566 1567 1569 1570
1422 1425 1427 1429 1431 1434 1436 1438 1440 1442 1445 1448 1450 1454 1457 1462 1465 1469 1473 1476 1480 1483 1487 1491 1494 1497 1500 1503 1506 1509 1512 1515 1517 1520 1523 1525 1527 1529 1530 1532 1534 1536 1538 1540 1542 1543 1544 1546 1548 1549 1551 1553 1554 1556 1557 1558 1560 1561 1562 1563 1564 1566 1567
1417 1420 1422 1424 1426 1428 1430 1433 1435 1438 1441 1445 1449 1452 1454 1458 1461 1464 1469 1472 1476 1479 1483 1486 1489 1492 1495 1498 1502 1504 1507 1510 1513 1516 1519 1521 1523 1525 1527 1529 1530 1532 1534 1536 1538 1539 1541 1542 1544 1546 1548 1549 1551 1552 1554 1555 1556 1558 1559 1560 1562 1563 1565
1413 1415 1417 1419 1421 1424 1426 1428 1431 1435 1439 1443 1446 1449 1451 1454 1457 1461 1464 1467 1471 1475 1478 1481 1484 1487 1490 1493 1497 1499 1503 1506 1509 1512 1515 1517 1519 1521 1523 1525 1527 1529 1531 1532 1534 1535 1537 1539 1541 1543 1545 1546 1548 1549 1551 1552 1553 1555 1556 1557 1559 1560 1562
1410 1413 1415 1417 1419 1422 1424 1427 1430 1434 1437 1439 1441 1444 1447 1450 1453 1456 1459 1462 1466 1469 1473 1476 1479 1482 1485 1489 1492 1495 1498 1502 1505 1508 1510 1513 1514 1516 1519 1521 1523 1525 1526 1528 1530 1532 1534 1536 1537 1539 1541 1543 1544 1546 1547 1549 1550 1552 1553 1554 1556 1557 1558
1409 1412 1414 1416 1419 1421 1423 1426 1428 1430 1432 1434 1436 1439 1442 1445 1448 1451 1455 1458 1461 1464 1468 1471 1475 1478 1480 1484 1487 1490 1494 1497 1500 1503 1505 1508 1510 1512 1515 1517 1519 1521 1522 1525 1527 1528 1530 1532 1534 1536 1537 1539 1541 1542 1544 1545 1547 1548 1550 1551 1552 1554 1555
1409 1411 1412 1414 1416 1418 1420 1422 1423 1425 1427 1429 1431 1434 1437 1439 1442 1446 1449 1453 1456 1459 1463 1466 1470 1473 1475 1478 1482 1485 1488 1491 1495 1498 1500 1503 1505 1508 1511 1513 1515 1516 1518 1521 1523 1525 1526 1528 1530 1532 1533 1535 1537 1539 1540 1541 1543 1545 1546 1548 1549 1550 1552
1408 1409 1410 1412 1413 1414 1416 1418 1419 1420 1422 1424 1427 1429 1432 1435 1437 1441 1444 1447 1450 1454 1458 1461 1464 1467 1470 1474 1477 1480 1483 1486 1489 1492 1495 1498 1501 1504 1507 1509 1511 1512 1514 1516 1519 1521 1523 1524 1526 1527 1529 1531 1533 1535 1536 1538 1539 1541 1543 1544 1545 1547 1548
1406 1407 1408 1409 1410 1412 1413 1415 1416 1417 1419 1421 1424 1426 1429 1431 1434 1437 1439 1442 1445 1450 1453 1457 1460 1462 1465 1468 1471 1474 1477 1480 1484 1487 1490 1493 1496 1499 1502 1504 1506 1508 1510 1512 1514 1517 1519 1520 1522 1523 1525 1527 1529 1531 1533 1534 1535 1537 1539 1541 1542 1543 1544
1404 1405 1406 1407 1408 1410 1411 1413 1414 1415 1417 1419 1421 1424 1426 1428 1431 1434 1436 1438 1442 1446 1449 1452 1455 1457 1460 1463 1466 1468 1471 1475 1479 1482 1485 1488 1491 1494 1497 1499 1502 1504 1506 1508 1510 1512 1514 1516 1518 1519 1521 1523 1525 1527 1529 1530 1531 1532 1534 1536 1537 1538 1540
1403 1403 1404 1406 1407 1409 1410 1411 1412 1413 1415 1416 1419 1421 1422 1425 1428 1430 1432 1435 1438 1441 1444 1447 1449 1452 1455 1458 1460 1463 1467 1471 1475 1478 1481 1484 1486 1489 1492 1494 1497 1499 1501 1503 1505 1507 1510 1512 1514 1515 1516 1518 1520 1523 1524 1525 1526 1527 1528 1531 1533 1534 1535
1402 1402 1403 1404 1405 1407 1408 1408 1409 1410 1411 1413 1415 1416 1418 1420 1422 1425 1428 1431 1434 1438 1440 1443 1444 1447 1450 1452 1454 1458 1462 1466 1470 1473 1475 1478 1481 1484 1487 1490 1492 1494 1496 1498 1500 1503 1505 1507 1509 1510 1511 1513 1515 1517 1519 1519 1520 1521 1523 1525 1528 1530 1531
1400 1401 1402 1403 1404 1405 1405 1406 1407 1407 1408 1409 1410 1412 1415 1416 1418 1421 1424 1428 1430 1433 1437 1439 1440 1442 1445 1447 1450 1454 1458 1461 1464 1467 1470 1473 1476 1478 1482 1485 1487 1489 1491 1493 1495 1498 1500 1502 1504 1505 1506 1507 1509 1512 1513 1513 1514 1516 1518 1520 1523 1525 1527
1398 1399 1400 1401 1402 1403 1403 1404 1404 1404 1404 1405 1407 1408 1410 1412 1415 1418 1420 1423 1426 1429 1434 1436 1437 1438 1440 1443 1446 1450 1453 1456 1459 1462 1465 1467 1470 1473 1477 1480 1482 1484 1485 1488 1490 1493 1495 1497 1498 1500 1502 1503 1504 1506 1507 1508 1509 1511 1513 1515 1518 1520 1522
1395 1396 1397 1399 1399 1400 1401 1401 1402 1402 1402 1402 1404 1405 1406 1409 1411 1413 1416 1420 1424 1428 1431 1433 1434 1435 1437 1440 1443 1445 1449 1452 1454 1457 1459 1462 1465 1469 1472 1475 1476 1478 1481 1483 1485 1488 1489 1491 1493 1494 1496 1497 1498 1500 1501 1503 1504 1506 1508 1510 1513 1515 1518
1392 1393 1394 1396 1396 1397 1398 1398 1399 1400 1399 1400 1401 1402 1404 1406 1407 1410 1413 1418 1422 1425 1427 1429 1431 1433 1435 1437 1440 1442 1445 1448 1450 1452 1455 1458 1461 1464 1467 1469 1471 1474 1476 1478 1480 1482 1483 1485 1487 1489 1490 1492 1493 1495 1496 1497 1498 1500 1503 1505 1508 1510 1513
1390 1391 1391 1392 1393 1394 1395 1396 1397 1397 1397 1397 1398 1399 1401 1402 1403 1407 1410 1414 1417 1419 1422 1425 1428 1430 1431 1434 1436 1439 1442 1444 1446 1448 1451 1454 1457 1460 1462 1464 1467 1469 1472 1474 1475 1476 1478 1480 1482 1483 1485 1487 1488 1490 1490 1491 1493 1494 1497 1500 1503 1506 1508
1389 1390 1390 1390 1391 1391 1392 1393 1394 1394 1394 1394 1395 1396 1398 1399 1401 1404 1407 1409 1413 1415 1418 1421 1423 1425 1428 1429 1432 1435 1437 1439 1442 1445 1448 1451 1453 1455 1457 1459 1461 1464 1467 1469 1471 1472 1473 1475 1476 1478 1480 1482 1483 1484 1485 1486 1488 1489 1491 1495 1498 1501 1503
1388 1388 1388 1388 1389 1389 1390 1391 1391 1391 1391 1392 1392 1393 1395 1397 1399 1401 1404 1406 1409 1411 1414 1417 1419 1421 1423 1424 1427 1430 1433 1436 1439 1441 1444 1447 1448 1450 1452 1454 1457 1459 1462 1464 1466 1467 1468 1469 1471 1473 1475 1476 1478 1479 1480 1482 1483 1484 1486 1489 1492 1495 1496
1385 1386 1385 1385 1386 1386 1387 1388 1388 1388 1389 1389 1389 1390 1392 1395 1397 1398 1401 1403 1406 1408 1411 1412 1414 1415 1417 1420 1423 1427 1430 1433 1436 1438 1441 1443 1444 1446 1448 1451 1453 1455 1457 1459 1461 1463 1465 1466 1467 1469 1470 1471 1472 1474 1475 1477 1478 1479 1481 1483 1486 1488 1490
1382 1382 1382 1383 1384 1384 1385 1385 1385 1386 1386 1386 1387 1388 1389 1392 1394 1396 1398 1400 1404 1406 1407 1408 1410 1412 1415 1418 1422 1426 1428 1431 1433 1436 1438 1440 1442 1444 1446 1448 1451 1453 1454 1456 1458 1460 1462 1463 1464 1465 1465 1467 1468 1469 1471 1472 1473 1473 1474 1476 1478 1480 1483
1379 1380 1380 1381 1382 1382 1382 1383 1383 1383 1383 1384 1384 1385 1387 1390 1392 1394 1396 1398 1401 1403 1404 1406 1408 1411 1414 1417 1420 1423 1425 1427 1430 1432 1435 1437 1439 1442 1444 1446 1448 1450 1451 1452 1454 1456 1458 1459 1460 1461 1461 1462 1463 1464 1465 1466 1467 1466 1466 1467 1469 1472 1476
1377 1378 1378 1379 1380 1380 1381 1381 1380 1381 1381 1381 1382 1384 1386 1388 1390 1393 1395 1396 1399 1401 1403 1405 1407 1409 1412 1414 1417 1420 1422 1424 1427 1429 1431 1434 1436 1439 1441 1442 1444 1446 1447 1449 1450 1452 1453 1454 1455 1456 1457 1457 1458 1459 1458 1459 1460 1460 1459 1460 1462 1464 1468
1376 1377 1377 1377 1378 1378 1379 1378 1378 1379 1379 1380 1381 1383 1384 1386 1389 1391 1394 1395 1398 1400 1402 1404 1405 1407 1410 1412 1415 1418 1420 1422 1424 1425 1428 1431 1433 1435 1437 1438 1440 1442 1444 1445 1447 1448 1449 1451 1451 1452 1452 1452 1453 1453 1452 1452 1454 1454 1453 1452 1454 1456 1458
1376 1377 1377 1377 1377 1377 1377 1377 1377 1377 1378 1379 1380 1382 1383 1385 1388 1390 1392 1394 1395 1398 1400 1401 1403 1405 1408 1410 1413 1415 1417 1419 1421 1423 1425 1428 1429 1431 1433 1435 1437 1438 1440 1442 1443 1445 1447 1447 1448 1449 1448 1448 1448 1448 1447 1447 1448 1448 1447 1446 1446 1447 1448
1377 1378 1378 1379 1379 1378 1378 1377 1376 1376 1377 1378 1380 1381 1383 1385 1386 1388 1390 1391 1393 1396 1398 1400 1402 1404 1406 1408 1410 1412 1415 1417 1419 1421 1422 1424 1426 1428 1430 1432 1434 1435 1437 1438 1439 1441 1442 1443 1443 1444 1444 1443 1443 1442 1442 1443 1443 1442 1440 1439 1439 1440 1441
1379 1380 1379 1379 1380 1379 1379 1378 1376 1376 1377 1378 1379 1381 1382 1384 1385 1387 1389 1391 1393 1395 1397 1399 1401 1402 1404 1407 1408 1410 1413 1414 1416 1418 1420 1422 1424 1425 1427 1429 1431 1432 1434 1435 1436 1436 1437 1438 1438 1439 1439 1439 1438 1437 1438 1439 1439 1437 1434 1433 1434 1436 1437
1380 1380 1380 1380 1380 1381 1381 1379 1377 1377 1377 1378 1379 1380 1381 1383 1385 1387 1389 1391 1392 1394 1396 1397 1399 1401 1403 1405 1406 1408 1410 1412 1414 1416 1417 1419 1421 1423 1424 1426 1428 1429 1431 1432 1432 1432 1433 1434 1434 1435 1435 1434 1434 1434 1435 1435 1435 1433 1430 1428 1429 1431 1433
1380 1380 1381 1381 1381 1382 1382 1380 1379 1378 1377 1378 1379 1380 1381 1383 1385 1387 1389 1390 1392 1394 1395 1397 1399 1400 1402 1404 1405 1406 1408 1410 1412 1414 1415 1417 1419 1421 1423 1424 1426 1427 1428 1428 1429 1429 1430 1430 1431 1431 1431 1430 1430 1430 1430 1430 1429 1428 1426 1424 1424 1425 1427
1380 1381 1381 1381 1381 1382 1382 1381 1380 1379 1378 1379 1380 1381 1383 1384 1386 1387 1389 1390 1391 1393 1394 1397 1399 1400 1402 1403 1405 1406 1407 1408 1410 1412 1414 1416 1418 1420 1421 1422 1424 1424 1424 1425 1426 1427 1427 1427 1427 1427 1427 1427 1427 1427 1426 1425 1424 1423 1421 1419 1419 1421 1421
1380 1381 1382 1381 1382 1382 1382 1381 1381 1380 1380 1380 1381 1383 1384 1385 1386 1388 1389 1390 1392 1393 1394 1396 1398 1400 1402 1402 1403 1404 1406 1407 1409 1411 1413 1415 1416 1417 1418 1419 1420 1421 1421 1422 1423 1423 1424 1424 1423 1423 1424 1424 1423 1422 1421 1419 1417 1418 1417 1414 1413 1413 1414
1381 1382 1382 1382 1382 1383 1383 1383 1382 1382 1382 1382 1382 1384 1385 1386 1387 1388 1389 1390 1392 1393 1394 1396 1397 1399 1399 1400 1401 1402 1403 1405 1407 1409 1411 1413 1414 1415 1415 1416 1417 1418 1418 1419 1420 1420 1421 1420 1420 1420 1420 1418 1418 1417 1416 1414 1411 1411 1412 1409 1405 1404 1404
1381 1382 1382 1382 1383 1384 1385 1385 1384 1384 1385 1384 1384 1385 1386 1386 1387 1388 1389 1390 1391 1393 1394 1395 1396 1397 1397 1398 1399 1401 1402 1404 1406 1407 1409 1411 1412 1413 1414 1415 1416 1416 1416 1417 1417 1417 1417 1417 1416 1416 1415 1413 1412 1411 1410 1408 1406 1404 1403 1402 1399 1396 1394
1381 1382 1383 1384 1384 1385 1387 1387 1387 1386 1387 1387 1387 1387 1388 1388 1389 1390 1390 1391 1392 1393 1394 1395 1395 1396 1397 1398 1400 1401 1403 1404 1406 1407 1409 1410 1411 1412 1413 1413 1414 1414 1414 1414 1414 1414 1413 1413 1412 1412 1411 1410 1408 1406 1403 1402 1400 1397 1394 1393 1391 1388 1385